This is the latest recevied weather packets stored in our database for station/object LX0APE-4. If no packets are shown the sender has not sent any weather packets the latest 10 day(s).
| Time | Temp. | Humidity | Pressure | Rain* | Wind** | Luminosity | Snow |
|---|---|---|---|---|---|---|---|
| 1777201333 | 18.89° C | 34% | 5019.8 hPa | 0 mm | - | - | - |
| 1777201033 | 18.33° C | 34% | 5019.7 hPa | 0 mm | - | - | - |
| 1777200738 | 18.33° C | 34% | 5019.9 hPa | 0 mm | - | - | - |
| 1777200733 | 18.33° C | 34% | 5019.9 hPa | 0 mm | - | - | - |
| 1777200433 | 17.78° C | 35% | 5019.9 hPa | 0 mm | - | - | - |
| 1777200133 | 17.78° C | 36% | 5020 hPa | 0 mm | - | - | - |
| 1777199833 | 17.22° C | 35% | 5020 hPa | 0 mm | - | - | - |
| 1777199533 | 17.22° C | 36% | 5020.1 hPa | 0 mm | - | - | - |
| 1777199236 | 16.67° C | 37% | 5020.1 hPa | 0 mm | - | - | - |
| 1777199234 | 17.22° C | 36% | 5020.1 hPa | 0 mm | - | - | - |
| 1777198933 | 16.67° C | 37% | 5020.1 hPa | 0 mm | - | - | - |
| 1777198634 | 16.67° C | 38% | 5020.2 hPa | 0 mm | - | - | - |
| 1777198334 | 16.67° C | 39% | 5020.2 hPa | 0 mm | - | - | - |
| 1777198039 | 16.11° C | 40% | 5020.2 hPa | 0 mm | - | - | - |
| 1777198034 | 16.11° C | 40% | 5020.2 hPa | 0 mm | - | - | - |
| 1777197734 | 16.11° C | 41% | 5020.2 hPa | 0 mm | - | - | - |
| 1777197434 | 15.56° C | 41% | 5020.2 hPa | 0 mm | - | - | - |
| 1777197134 | 15.56° C | 42% | 5020.4 hPa | 0 mm | - | - | - |
| 1777196834 | 15° C | 44% | 5020.4 hPa | 0 mm | - | - | - |
| 1777196534 | 15° C | 44% | 5020.2 hPa | 0 mm | - | - | - |
| 1777196234 | 15° C | 46% | 5020.3 hPa | 0 mm | - | - | - |
| 1777195934 | 14.44° C | 47% | 5020.3 hPa | 0 mm | - | - | - |
| 1777195634 | 13.89° C | 48% | 5020.4 hPa | 0 mm | - | - | - |
| 1777195334 | 13.89° C | 47% | 5020.4 hPa | 0 mm | - | - | - |
| 1777195034 | 13.89° C | 49% | 5020.5 hPa | 0 mm | - | - | - |
* Rain latest hour (hover to see other rain measurements)
** Current wind speed in m/s (hover to see current wind gust speed)